Location: Fredericksburg
(30.2750°N, 98.8720°W)
Time: 11:09:08
(UTC-05:00)

ISS - All Passes

Search period start: 01 September 2015 00:00
Search period end: 11 September 2015 00:00
Orbit: 400 x 402 km, 51.6° (Epoch: 01 September)

Date Brightness Start Highest point End Pass type
(mag) Time Alt. Az. Time Alt. Az. Time Alt. Az.
01 Sep - 08:00:59 10° S 08:03:21 19° SE 08:05:48 10° E daylight
01 Sep - 09:36:55 10° W 09:39:40 25° NW 09:42:24 10° NNE daylight
01 Sep - 16:08:49 10° NNW 16:11:17 20° NE 16:13:48 10° E daylight
01 Sep - 17:44:57 10° WNW 17:47:41 25° SW 17:50:22 10° S daylight
02 Sep - 08:43:06 10° WSW 08:46:18 54° NW 08:49:30 10° NE daylight
02 Sep - 15:16:48 10° NNE 15:17:46 11° NNE 15:18:49 10° NE daylight
02 Sep - 16:51:17 10° NW 16:54:29 62° SW 16:57:41 10° SSE daylight
03 Sep - 07:49:51 10° SSW 07:53:02 58° SE 07:56:15 10° NE daylight
03 Sep - 09:28:29 10° NW 09:29:45 12° NNW 09:30:55 10° NNW daylight
03 Sep - 15:58:03 10° NNW 16:01:14 51° NE 16:04:23 10° ESE daylight
04 Sep - 06:57:13 10° S 06:59:51 23° SE 07:02:33 10° ENE daylight
04 Sep - 08:33:40 10° W 08:36:14 21° NW 08:38:46 10° NNE daylight
04 Sep - 15:05:11 10° NNW 15:07:51 23° NE 15:10:33 10° E daylight
04 Sep - 16:41:40 10° WNW 16:44:11 20° SW 16:46:38 10° S daylight
05 Sep - 06:06:14 10° SE 06:06:42 10° SE 06:07:20 10° ESE visible
05 Sep - 07:39:43 10° WSW 07:42:50 44° NW 07:45:58 10° NNE daylight
05 Sep - 14:12:51 10° N 14:14:21 13° NNE 14:15:57 10° ENE daylight
05 Sep - 15:47:52 10° NW 15:51:00 49° SW 15:54:08 10° SSE daylight
06 Sep - 06:46:20 10° SW 06:49:33 74° SE 06:52:48 10° NE visible
06 Sep - 08:26:01 10° NW 08:26:21 10° NNW 08:26:34 10° NNW daylight
06 Sep - 14:54:33 10° NW 14:57:46 63° NE 15:00:58 10° SE daylight
07 Sep - 05:53:31 10° S 05:56:21 29° SE 05:59:14 10° ENE visible
07 Sep - 07:30:26 10° W 07:32:49 18° NW 07:35:08 10° N daylight
07 Sep - 14:01:35 10° NNW 14:04:25 27° NE 14:07:16 10° ESE daylight
07 Sep - 15:38:28 10° W 15:40:41 17° SW 15:42:49 10° S daylight
08 Sep - 05:01:45 10° SSE 05:03:12 13° SE 05:04:47 10° E visible
08 Sep - 06:36:21 10° WSW 06:39:23 36° NW 06:42:26 10° NNE visible
08 Sep - 13:09:03 10° N 13:10:57 15° NE 13:12:55 10° ENE daylight
08 Sep - 14:44:28 10° WNW 14:47:31 39° SW 14:50:33 10° SSE daylight
09 Sep - 05:42:50 10° SW 05:46:05 88° NW 05:49:20 10° NE visible
09 Sep - 13:51:03 10° NW 13:54:17 80° NE 13:57:32 10° SE daylight
10 Sep - 04:49:52 10° SSW 04:52:52 35° SE 04:55:53 10° ENE visible
10 Sep - 06:27:17 10° WNW 06:29:23 16° NW 06:31:27 10° N visible
10 Sep - 12:58:00 10° NNW 13:00:59 33° NE 13:03:58 10° ESE daylight
10 Sep - 14:35:22 10° W 14:37:11 14° SW 14:38:53 10° SSW daylight
